Tracking 30101 objects as of 14-Dec-2024
HD Live streaming from Space Station
objects crossing your sky now

STARLINK-11343

Track STARLINK-11343 now!
10-day predictions
STARLINK-11343 is classified as:


NORAD ID: 62017
Int'l Code: 2024-213K
Perigee: 346.2 km
Apogee: 347.5 km
Inclination: 53.2 °
Period: 91.3 minutes
Semi major axis: 6717 km
RCS: Unknown
Launch date: November 18, 2024
Source: United States (US)
Launch site: AIR FORCE WESTERN TEST RANGE (AFWTR)
Your satellite tracking list
Your tracking list is empty




NASA's NSSDC Master Catalog

Two Line Element Set (TLE):
1 62017U 24213K   24348.75071949  .00006601  00000-0  44276-4 0  9991
2 62017  53.1568 107.6552 0000985  37.3326 322.7763 15.76738764  5243
Source of the keplerian elements: AFSPC